User: anonymous   Login
Location: Zlin
(49.2330°N, 17.6670°E)
Time: 19:49:38
(UTC+02:00)
Language:

ISS - Orbit

View from above orbital plane
View from above orbital plane
View from above satellite
View from above satellite

Ground track
Ground track

The orbit data is extracted from the following two-line orbital elements,

1 25544U 98067A   15091.51728166  .00017509  00000-0  25793-3 0  9993
2 25544 051.6460 107.0414 0006750 160.9516 301.6028 15.55485337936102
Epoch (UTC): 01 April 2015 12:24:53
Eccentricity: 0.0006750
inclination: 51.6460°
perigee height: 396 km
apogee height: 405 km
right ascension of ascending node: 107.0414°
argument of perigee: 160.9516°
revolutions per day: 15.55485337
mean anomaly at epoch: 301.6028°
orbit number at epoch: 93610

The dashed part of the orbit path shows where the satellite is in the earth's shadow,  

DLR